Location: Hradec Kralove
(50.2170°N, 15.8330°E)
Time: 10:39:25
(UTC+01:00)

ISS - Pass Details

Date: 26 February 2026
Orbit: 416 x 426 km, 51.6° (Epoch: 9 March)

Event Time Altitude Azimuth Distance (km) Brightness Sun altitude
Exits shadow 03:34:15 13° 77° (ENE) 1,354 -0.4 -30.9°
Drops below altitude 10° 03:34:36 10° 77° (ENE) 1,497 -0.1 -30.9°
Sets 03:36:42 0° 80° (E) 2,360 1.1 -30.5°
